FW0153 Weather Reports


time (UTC)temp
C
wind
direction
speed
KPH
gust
KPH
rain 1hr
cm
rain 24hr
cm
rain mn
cm
humidity
%
barometer
mb
20260901052005 26 119 0.0 0.0 0.00 0.00 0.00 79 1013.0
20260901051505 26 75 29.0 0.0 0.00 0.00 0.00 79 1013.0
20260901051006 26 98 0.0 0.0 0.00 0.00 0.00 78 1013.3
20260901050505 26 97 0.0 0.0 0.00 0.00 0.00 78 1013.3
20260901045505 26 104 6.4 0.0 0.00 0.00 0.00 78 1013.0
20260901045005 26 144 6.4 0.0 0.00 0.00 0.00 78 1013.3
20260901044506 26 96 14.5 0.0 0.00 0.00 0.00 77 1013.3
20260901044214 26 154 6.4 0.0 0.00 0.00 0.00 77 1013.3
20260901043505 26 62 29.0 0.0 0.00 0.00 0.00 77 1013.3
20260901043005 26 131 6.4 0.0 0.00 0.00 0.00 76 1013.3
20260901042505 26 136 14.5 0.0 0.00 0.00 0.00 76 1013.0
20260901042005 26 73 14.5 0.0 0.00 0.00 0.00 76 1013.3
20260901041504 26 141 6.4 0.0 0.00 0.00 0.00 76 1013.3
20260901041005 26 319 20.9 0.0 0.00 0.00 0.00 75 1013.3
20260901040505 26 98 14.5 0.0 0.00 0.00 0.00 75 1013.3
20260901040005 26 149 14.5 0.0 0.00 0.00 0.00 75 1013.3
20260901035712 26 49 0.0 0.0 0.00 0.00 0.00 74 1013.3
20260901035005 26 116 6.4 0.0 0.00 0.00 0.00 74 1013.3
20260901034505 26 62 6.4 0.0 0.00 0.00 0.00 74 1013.3
20260901034005 26 62 14.5 0.0 0.00 0.00 0.00 74 1013.3
20260901033505 26 102 6.4 0.0 0.00 0.00 0.00 73 1013.0
20260901033004 26 99 29.0 0.0 0.00 0.00 0.00 73 1013.0
20260901032505 26 110 20.9 0.0 0.00 0.00 0.00 72 1013.0
20260901032005 26 68 14.5 0.0 0.00 0.00 0.00 72 1013.3
20260901031712 26 140 6.4 0.0 0.00 0.00 0.00 71 1013.0
20260901031005 26 83 6.4 0.0 0.00 0.00 0.00 71 1013.0
20260901030505 26 108 6.4 0.0 0.00 0.00 0.00 70 1012.7
20260901030004 27 62 14.5 0.0 0.00 0.00 0.00 70 1012.7
20260901025505 27 103 20.9 0.0 0.00 0.00 0.00 70 1012.3
20260901025213 27 37 14.5 0.0 0.00 0.00 0.00 69 1012.3
20260901024713 27 78 29.0 0.0 0.00 0.00 0.00 68 1012.3
20260901024212 27 17 20.9 0.0 0.00 0.00 0.00 67 1012.0
20260901023505 27 107 29.0 0.0 0.00 0.00 0.00 67 1012.0
20260901023212 27 87 6.4 0.0 0.00 0.00 0.00 66 1011.6
20260901022505 27 109 20.9 0.0 0.00 0.00 0.00 66 1011.6
20260901022212 27 96 20.9 0.0 0.00 0.00 0.00 65 1012.0
20260901021711 27 33 6.4 0.0 0.00 0.00 0.00 65 1011.6
20260901021005 27 143 14.5 0.0 0.00 0.00 0.00 64 1011.6
20260901020505 27 63 20.9 0.0 0.00 0.00 0.00 64 1011.3
20260901020212 27 63 20.9 0.0 0.00 0.00 0.00 63 1011.3
20260901015505 28 107 20.9 0.0 0.00 0.00 0.00 63 1011.3
20260901015005 28 34 37.0 0.0 0.00 0.00 0.00 62 1011.0
20260901014505 28 55 6.4 0.0 0.00 0.00 0.00 62 1011.0
20260901014005 28 63 20.9 0.0 0.00 0.00 0.00 60 1011.0
20260901013505 28 43 6.4 0.0 0.00 0.00 0.00 60 1011.3
20260901013005 28 104 20.9 0.0 0.00 0.00 0.00 59 1011.0
20260901012505 28 122 0.0 0.0 0.00 0.00 0.00 57 1011.0
20260901012005 28 114 6.4 0.0 0.00 0.00 0.00 56 1011.0
20260901011505 28 81 20.9 0.0 0.00 0.00 0.00 55 1010.6
20260901011004 28 82 29.0 0.0 0.00 0.00 0.00 54 1010.6
20260901010505 28 43 20.9 0.0 0.00 0.00 0.00 53 1010.6
20260901010005 29 45 14.5 0.0 0.00 0.00 0.00 52 1010.6
20260901005713 29 28 51.5 0.0 0.00 0.00 0.00 51 1010.6
20260901005005 29 64 20.9 0.0 0.00 0.00 0.00 51 1010.6
20260901004504 29 55 14.5 0.0 0.00 0.00 0.00 50 1010.3
20260901004005 30 49 14.5 0.0 0.00 0.00 0.00 49 1010.3
20260901003505 30 40 29.0 0.0 0.00 0.00 0.00 48 1010.3
20260901003005 30 201 20.9 0.0 0.00 0.00 0.00 49 1010.3
20260901002505 30 75 20.9 0.0 0.00 0.00 0.00 48 1010.3
20260901002005 30 12 14.5 0.0 0.00 0.00 0.00 47 1009.9
20260901001505 30 193 20.9 0.0 0.00 0.00 0.00 46 1009.9
20260901001004 30 109 29.0 0.0 0.00 0.00 0.00 45 1010.3
20260901000713 30 99 20.9 0.0 0.00 0.00 0.00 45 1009.9
20260901000005 31 261 20.9 0.0 0.00 0.00 0.00 44 1009.6
20260831235505 31 2 20.9 0.0 0.00 0.00 0.00 44 1009.6
20260831235211 31 112 37.0 0.0 0.00 0.00 0.00 43 1009.6
20260831234505 31 340 37.0 0.0 0.00 0.00 0.00 43 1009.6
20260831234005 31 42 37.0 0.0 0.00 0.00 0.00 42 1009.6
20260831233505 31 110 0.0 0.0 0.00 0.00 0.00 41 1009.6
20260831233213 31 348 20.9 0.0 0.00 0.00 0.00 40 1009.6
20260831232505 31 91 20.9 0.0 0.00 0.00 0.00 40 1009.6
20260831232211 32 96 43.5 0.0 0.00 0.00 0.00 40 1009.6
20260831231505 32 67 6.4 0.0 0.00 0.00 0.00 40 1009.6
20260831231005 32 44 14.5 0.0 0.00 0.00 0.00 40 1009.6
20260831230505 32 77 29.0 0.0 0.00 0.00 0.00 40 1009.6
20260831230213 32 50 14.5 0.0 0.00 0.00 0.00 40 1009.3
20260831225505 32 60 37.0 0.0 0.00 0.00 0.00 39 1009.3
20260831225211 33 51 37.0 0.0 0.00 0.00 0.00 37 1009.6
20260831224505 33 140 0.0 0.0 0.00 0.00 0.00 36 1009.6
20260831224005 33 131 20.9 0.0 0.00 0.00 0.00 36 1009.6
20260831223505 33 138 20.9 0.0 0.00 0.00 0.00 35 1009.6
20260831223213 33 80 6.4 0.0 0.00 0.00 0.00 34 1009.6
20260831222505 33 49 66.0 0.0 0.00 0.00 0.00 33 1009.6
20260831222005 33 108 29.0 0.0 0.00 0.00 0.00 33 1009.3
20260831221504 33 158 6.4 0.0 0.00 0.00 0.00 30 1009.6
20260831221005 34 131 43.5 0.0 0.00 0.00 0.00 30 1009.6
20260831220505 33 107 20.9 0.0 0.00 0.00 0.00 30 1009.6
20260831220213 34 144 20.9 0.0 0.00 0.00 0.00 30 1009.6
20260831215505 33 77 29.0 0.0 0.00 0.00 0.00 31 1009.6
20260831215213 33 86 6.4 0.0 0.00 0.00 0.00 32 1009.6
20260831214504 34 74 6.4 0.0 0.00 0.00 0.00 31 1009.6
20260831214213 34 45 6.4 0.0 0.00 0.00 0.00 31 1009.6
20260831213505 33 52 0.0 0.0 0.00 0.00 0.00 32 1009.6
20260831213005 34 24 20.9 0.0 0.00 0.00 0.00 31 1009.9
20260831212505 34 139 6.4 0.0 0.00 0.00 0.00 32 1009.6
20260831212005 34 82 20.9 0.0 0.00 0.00 0.00 32 1009.9
20260831211505 34 85 14.5 0.0 0.00 0.00 0.00 32 1009.9
20260831211004 34 158 6.4 0.0 0.00 0.00 0.00 32 1009.9
20260831210505 34 115 14.5 0.0 0.00 0.00 0.00 32 1010.3
20260831210005 33 90 20.9 0.0 0.00 0.00 0.00 33 1009.9
20260831205505 33 101 14.5 0.0 0.00 0.00 0.00 34 1009.9
20260831205005 33 45 14.5 0.0 0.00 0.00 0.00 34 1010.3
20260831204505 33 79 20.9 0.0 0.00 0.00 0.00 34 1010.3
20260831204212 34 36 20.9 0.0 0.00 0.00 0.00 33 1010.3
20260831203505 34 32 14.5 0.0 0.00 0.00 0.00 33 1010.6
20260831203212 35 131 20.9 0.0 0.00 0.00 0.00 32 1010.6
20260831202505 35 1 14.5 0.0 0.00 0.00 0.00 31 1010.6
20260831202005 35 49 6.4 0.0 0.00 0.00 0.00 29 1010.6
20260831201505 34 49 20.9 0.0 0.00 0.00 0.00 29 1010.6
20260831201005 34 57 20.9 0.0 0.00 0.00 0.00 29 1011.0
20260831200505 35 76 14.5 0.0 0.00 0.00 0.00 29 1011.0
20260831200005 34 169 20.9 0.0 0.00 0.00 0.00 30 1011.0
20260831195505 34 128 14.5 0.0 0.00 0.00 0.00 31 1011.0
20260831195005 35 41 20.9 0.0 0.00 0.00 0.00 31 1011.0
20260831194505 35 52 14.5 0.0 0.00 0.00 0.00 32 1011.0
20260831194005 35 158 6.4 0.0 0.00 0.00 0.00 33 1011.3
20260831193505 33 76 6.4 0.0 0.00 0.00 0.00 34 1011.3
20260831193212 33 128 20.9 0.0 0.00 0.00 0.00 33 1011.3
20260831192505 34 338 20.9 0.0 0.00 0.00 0.00 33 1011.3
20260831192004 35 100 14.5 0.0 0.00 0.00 0.00 34 1011.6
20260831191505 33 141 14.5 0.0 0.00 0.00 0.00 33 1011.6
20260831191005 33 82 14.5 0.0 0.00 0.00 0.00 34 1011.6
20260831190713 33 60 37.0 0.0 0.00 0.00 0.00 34 1011.6
20260831190005 34 177 29.0 0.0 0.00 0.00 0.00 34 1011.6
20260831185505 33 152 14.5 0.0 0.00 0.00 0.00 34 1011.6
20260831185005 34 50 43.5 0.0 0.00 0.00 0.00 33 1011.6
20260831184505 33 100 20.9 0.0 0.00 0.00 0.00 32 1012.0
20260831184004 33 50 20.9 0.0 0.00 0.00 0.00 35 1012.0
20260831183505 33 142 43.5 0.0 0.00 0.00 0.00 34 1012.0
20260831183005 33 86 20.9 0.0 0.00 0.00 0.00 36 1012.0
20260831182505 33 61 6.4 0.0 0.00 0.00 0.00 36 1012.0
20260831182005 33 192 29.0 0.0 0.00 0.00 0.00 36 1012.0
20260831181505 33 152 6.4 0.0 0.00 0.00 0.00 37 1012.3
20260831181005 33 181 20.9 0.0 0.00 0.00 0.00 37 1012.3
20260831180712 33 33 20.9 0.0 0.00 0.00 0.00 37 1012.3
20260831180005 33 153 14.5 0.0 0.00 0.00 0.00 37 1012.3
20260831175505 32 2 14.5 0.0 0.00 0.00 0.00 38 1012.3
20260831175005 32 156 14.5 0.0 0.00 0.00 0.00 41 1012.7
20260831174712 32 102 14.5 0.0 0.00 0.00 0.00 39 1012.7
20260831174004 33 93 14.5 0.0 0.00 0.00 0.00 39 1012.7
20260831173505 32 87 14.5 0.0 0.00 0.00 0.00 41 1012.7
20260831173005 32 28 14.5 0.0 0.00 0.00 0.00 40 1012.7
20260831172505 32 113 14.5 0.0 0.00 0.00 0.00 41 1012.7
20260831172005 32 34 6.4 0.0 0.00 0.00 0.00 40 1013.0
20260831171505 32 70 6.4 0.0 0.00 0.00 0.00 42 1013.0
20260831171005 32 96 6.4 0.0 0.00 0.00 0.00 43 1013.0
20260831170506 31 19 6.4 0.0 0.00 0.00 0.00 44 1012.7
20260831170005 32 106 6.4 0.0 0.00 0.00 0.00 43 1013.3
20260831165505 31 175 20.9 0.0 0.00 0.00 0.00 43 1013.0
20260831165005 31 201 20.9 0.0 0.00 0.00 0.00 44 1013.0
20260831164712 31 58 14.5 0.0 0.00 0.00 0.00 45 1013.0
20260831164213 31 143 20.9 0.0 0.00 0.00 0.00 48 1013.0
20260831163712 31 175 14.5 0.0 0.00 0.00 0.00 47 1013.0
20260831163005 31 148 14.5 0.0 0.00 0.00 0.00 50 1013.0
20260831162505 31 136 20.9 0.0 0.00 0.00 0.00 49 1013.3
20260831162005 31 118 20.9 0.0 0.00 0.00 0.00 50 1013.3
20260831161505 30 164 20.9 0.0 0.00 0.00 0.00 53 1013.0
20260831161004 30 106 14.5 0.0 0.00 0.00 0.00 52 1013.3
20260831160505 30 62 20.9 0.0 0.00 0.00 0.00 52 1013.3
20260831160005 30 144 6.4 0.0 0.00 0.00 0.00 52 1013.0
20260831155505 30 244 20.9 0.0 0.00 0.00 0.00 55 1013.3
20260831155005 30 233 20.9 0.0 0.00 0.00 0.00 57 1013.3
20260831154505 30 110 20.9 0.0 0.00 0.00 0.00 58 1013.3
20260831154005 29 121 6.4 0.0 0.00 0.00 0.00 59 1013.3
20260831153505 29 75 20.9 0.0 0.00 0.00 0.00 59 1013.3
20260831153004 29 146 6.4 0.0 0.00 0.00 0.00 61 1013.3
20260831152505 28 184 20.9 0.0 0.00 0.00 0.00 61 1013.3
20260831152005 28 144 29.0 0.0 0.00 0.00 0.00 61 1013.3
20260831151505 29 120 14.5 0.0 0.00 0.00 0.00 61 1013.3
20260831151005 29 270 14.5 0.0 0.00 0.00 0.00 62 1013.3
20260831150711 29 136 6.4 0.0 0.00 0.00 0.00 63 1013.3
20260831150005 28 169 20.9 0.0 0.00 0.00 0.00 64 1013.3
20260831145505 28 107 20.9 0.0 0.00 0.00 0.00 67 1013.3
20260831145212 28 175 20.9 0.0 0.00 0.00 0.00 67 1013.3
20260831144505 28 157 20.9 0.0 0.00 0.00 0.00 68 1013.3
20260831144005 27 61 0.0 0.0 0.00 0.00 0.00 71 1013.3
20260831143713 27 143 43.5 0.0 0.00 0.00 0.00 71 1013.3
20260831143005 27 175 14.5 0.0 0.00 0.00 0.00 73 1013.3
20260831142505 27 139 14.5 0.0 0.00 0.00 0.00 73 1013.3
20260831142005 27 179 20.9 0.0 0.00 0.00 0.00 74 1013.3
20260831141504 27 107 20.9 0.0 0.00 0.00 0.00 73 1013.7
20260831141005 27 158 6.4 0.0 0.00 0.00 0.00 75 1013.3
20260831140713 27 91 29.0 0.0 0.00 0.00 0.00 76 1013.3
20260831140005 27 64 20.9 0.0 0.00 0.00 0.00 76 1013.0
20260831135505 26 89 20.9 0.0 0.00 0.00 0.00 77 1013.3
20260831135005 26 150 14.5 0.0 0.00 0.00 0.00 78 1013.0
20260831134505 26 173 14.5 0.0 0.00 0.00 0.00 79 1013.3
20260831134004 26 36 14.5 0.0 0.00 0.00 0.00 81 1013.0
20260831133713 26 117 0.0 0.0 0.00 0.00 0.00 82 1013.0
20260831133005 26 62 14.5 0.0 0.00 0.00 0.00 82 1013.0
20260831132505 26 114 0.0 0.0 0.00 0.00 0.00 83 1013.0
20260831132005 25 123 6.4 0.0 0.00 0.00 0.00 84 1013.0
20260831131505 25 86 6.4 0.0 0.00 0.00 0.00 84 1012.7
20260831131005 25 104 6.4 0.0 0.00 0.00 0.00 85 1013.0
20260831130505 25 88 6.4 0.0 0.00 0.00 0.00 85 1012.7
20260831130005 25 116 0.0 0.0 0.00 0.00 0.00 86 1012.7
20260831125505 25 133 6.4 0.0 0.00 0.00 0.00 86 1012.7
20260831125211 25 109 0.0 0.0 0.00 0.00 0.00 86 1012.7
20260831124505 25 107 6.4 0.0 0.00 0.00 0.00 87 1012.7
20260831124005 25 139 0.0 0.0 0.00 0.00 0.00 87 1012.7
20260831123505 25 139 0.0 0.0 0.00 0.00 0.00 87 1012.3
20260831123213 25 91 0.0 0.0 0.00 0.00 0.00 87 1012.3
20260831122712 25 115 0.0 0.0 0.00 0.00 0.00 87 1012.3
20260831122005 25 108 6.4 0.0 0.00 0.00 0.00 87 1012.3
20260831121712 25 104 0.0 0.0 0.00 0.00 0.00 87 1012.0
20260831121005 25 56 14.5 0.0 0.00 0.00 0.00 87 1012.3
20260831120505 25 136 0.0 0.0 0.00 0.00 0.00 87 1012.0
20260831120004 25 119 0.0 0.0 0.00 0.00 0.00 86 1012.0
20260831115505 25 102 0.0 0.0 0.00 0.00 0.00 86 1012.0
20260831115005 25 111 0.0 0.0 0.00 0.00 0.00 86 1011.6
20260831114712 25 135 0.0 0.0 0.00 0.00 0.00 86 1012.0
20260831114005 25 123 0.0 0.0 0.00 0.00 0.00 86 1011.6
20260831113505 25 137 6.4 0.0 0.00 0.00 0.00 86 1012.0
20260831113213 25 116 6.4 0.0 0.00 0.00 0.00 85 1011.6
20260831112505 25 111 0.0 0.0 0.00 0.00 0.00 85 1011.6
20260831112213 25 107 0.0 0.0 0.00 0.00 0.00 85 1012.0
20260831111504 25 60 0.0 0.0 0.00 0.00 0.00 84 1012.3
20260831111004 25 105 0.0 0.0 0.00 0.00 0.00 84 1012.0
20260831110712 25 106 14.5 0.0 0.00 0.00 0.00 84 1012.0
20260831110005 25 131 0.0 0.0 0.00 0.00 0.00 83 1012.0
20260831105505 25 119 0.0 0.0 0.00 0.00 0.00 83 1012.0
20260831105005 25 111 0.0 0.0 0.00 0.00 0.00 83 1011.6
20260831104505 25 84 0.0 0.0 0.00 0.00 0.00 83 1012.0
20260831104004 25 127 0.0 0.0 0.00 0.00 0.00 83 1012.0
20260831103505 25 95 0.0 0.0 0.00 0.00 0.00 82 1012.0
20260831103005 25 72 14.5 0.0 0.00 0.00 0.00 82 1011.6
20260831102505 25 142 14.5 0.0 0.00 0.00 0.00 82 1011.6
20260831102005 25 84 14.5 0.0 0.00 0.00 0.00 82 1011.6
20260831101505 25 118 6.4 0.0 0.00 0.00 0.00 82 1012.0
20260831101005 25 153 6.4 0.0 0.00 0.00 0.00 82 1012.0
20260831100505 26 139 6.4 0.0 0.00 0.00 0.00 82 1012.0
20260831100005 26 149 14.5 0.0 0.00 0.00 0.00 82 1012.0
20260831095504 26 149 14.5 0.0 0.00 0.00 0.00 82 1012.0
20260831095005 26 118 0.0 0.0 0.00 0.00 0.00 82 1012.0
20260831094505 26 121 6.4 0.0 0.00 0.00 0.00 82 1012.0
20260831094005 26 59 14.5 0.0 0.00 0.00 0.00 82 1012.0
20260831093505 26 120 6.4 0.0 0.00 0.00 0.00 82 1011.6
20260831093212 26 134 0.0 0.0 0.00 0.00 0.00 82 1011.6
20260831092505 26 170 14.5 0.0 0.00 0.00 0.00 82 1012.0
20260831092005 26 154 6.4 0.0 0.00 0.00 0.00 82 1011.6
20260831091713 26 147 6.4 0.0 0.00 0.00 0.00 81 1011.6
20260831091004 26 167 14.5 0.0 0.00 0.00 0.00 81 1011.6
20260831090505 26 121 20.9 0.0 0.00 0.00 0.00 81 1011.6
20260831090005 26 117 0.0 0.0 0.00 0.00 0.00 81 1012.3
20260831085713 26 96 0.0 0.0 0.00 0.00 0.00 81 1012.0
20260831085212 26 43 14.5 0.0 0.00 0.00 0.00 81 1012.0
20260831084505 26 126 6.4 0.0 0.00 0.00 0.00 80 1012.0
20260831084005 26 97 20.9 0.0 0.00 0.00 0.00 80 1012.3
20260831083713 26 154 14.5 0.0 0.00 0.00 0.00 80 1012.3
20260831083212 26 91 14.5 0.0 0.00 0.00 0.00 80 1012.3
20260831082505 26 50 37.0 0.0 0.00 0.00 0.00 79 1012.0
20260831082005 26 183 29.0 0.0 0.00 0.00 0.00 79 1012.3
20260831081504 26 167 37.0 0.0 0.00 0.00 0.00 80 1012.0
20260831081005 26 87 0.0 0.0 0.00 0.00 0.00 80 1012.0
20260831080713 26 168 43.5 0.0 0.00 0.00 0.00 80 1012.3
20260831080213 26 169 6.4 0.0 0.00 0.00 0.00 80 1012.3
20260831075712 26 117 0.0 0.0 0.00 0.00 0.00 81 1012.3
20260831075005 26 129 0.0 0.0 0.00 0.00 0.00 81 1012.3
20260831074504 26 85 0.0 0.0 0.00 0.00 0.00 81 1012.3
20260831074005 26 104 0.0 0.0 0.00 0.00 0.00 81 1012.3
20260831073505 26 144 6.4 0.0 0.00 0.00 0.00 81 1012.3
20260831073005 26 156 14.5 0.0 0.00 0.00 0.00 81 1012.3
20260831072505 26 170 14.5 0.0 0.00 0.00 0.00 81 1012.7
20260831072005 26 137 0.0 0.0 0.00 0.00 0.00 81 1012.3
20260831071505 26 175 6.4 0.0 0.00 0.00 0.00 81 1012.3
20260831071005 26 36 14.5 0.0 0.00 0.00 0.00 81 1012.7
20260831070505 26 83 6.4 0.0 0.00 0.00 0.00 81 1012.7
20260831070005 26 118 0.0 0.0 0.00 0.00 0.00 81 1012.7
20260831065505 26 117 6.4 0.0 0.00 0.00 0.00 81 1013.0
20260831065005 26 92 6.4 0.0 0.00 0.00 0.00 81 1013.0
20260831064505 26 152 6.4 0.0 0.00 0.00 0.00 81 1013.0
20260831064005 26 44 6.4 0.0 0.00 0.00 0.00 81 1013.0
20260831063505 26 129 14.5 0.0 0.00 0.00 0.00 81 1012.7
20260831063005 26 153 6.4 0.0 0.00 0.00 0.00 81 1013.0
20260831062712 26 58 14.5 0.0 0.00 0.00 0.00 80 1013.3
20260831062213 26 120 6.4 0.0 0.00 0.00 0.00 80 1013.0
20260831061504 26 105 6.4 0.0 0.00 0.00 0.00 80 1013.0
20260831061005 26 134 6.4 0.0 0.00 0.00 0.00 80 1013.0
20260831060712 26 29 0.0 0.0 0.00 0.00 0.00 80 1012.7
20260831060005 26 178 20.9 0.0 0.00 0.00 0.00 80 1013.0
20260831055712 26 66 0.0 0.0 0.00 0.00 0.00 80 1013.0
20260831055005 26 108 6.4 0.0 0.00 0.00 0.00 79 1013.0
20260831054505 26 82 6.4 0.0 0.00 0.00 0.00 79 1013.0
20260831054005 26 177 20.9 0.0 0.00 0.00 0.00 79 1012.7
20260831053505 26 88 0.0 0.0 0.00 0.00 0.00 79 1013.0
20260831053005 26 107 0.0 0.0 0.00 0.00 0.00 79 1013.0
20260831052711 26 63 20.9 0.0 0.00 0.00 0.00 79 1013.0